Location: ??????????
(54.7560°N, 39.1389°E)
Time: 14:26:08
(UTC+00:00)

ERS-1 Rocket - Pass Details

Date: 19 May 2025
Orbit: 747 x 753 km, 98.2° (Epoch: 21 June)

Event Time Altitude Azimuth Distance (km) Brightness Sun altitude
Rises 18:25:14 0° 180° (S) 3,194 5.8 -6.5°
Reaches altitude 10° 18:27:35 10° 186° (S) 2,274 5.1 -6.7°
Maximum altitude 18:32:26 48° 261° (W) 986 3.9 -7.2°
Drops below altitude 10° 18:37:18 10° 336° (NNW) 2,290 7.0 -7.6°
Sets 18:39:42 0° 342° (NNW) 3,219 7.8 -7.8°
